Terug naar catalogus

QIANFAN-82

ActiefCommunicatiePO
NORAD 63168·PAYLOAD·🇨🇳 China

Gelanceerd Mar 11, 2025 vanaf Wenchang Space Launch Site

Loading…

Volgende Passages (komende 24 uur)

TLE

VersSource: Space-Track

Epoch: Sep 14, 2026, 13:20 UTC

1 63168U 25046K   26257.55570301  .00000048  00000-0  55552-4 0  9997
2 63168  88.9652 291.2842 0014313  57.8442 302.4096 13.51020194 84714

Volg QIANFAN-82 in realtime met AllMySat

Download on the App Store